Location: Unspecified
(0.0000°N, 0.0000°E)
Time: 18:27:25
(UTC+00:00)

Hubble Space Telescope - Pass Details

Date: 22 October 2021
Orbit: 535 x 538 km, 28.5° (Epoch: 23 October)

Event Time Altitude Azimuth Distance (km) Brightness Sun altitude
Exits shadow 04:28:53 - 353° (N) 1,853 3.3 -18.5°
Reaches altitude 10° 04:29:16 10° 358° (N) 1,776 3.3 -18.4°
Maximum altitude 04:31:17 13° 27° (NNE) 1,578 3.3 -17.9°
Drops below altitude 10° 04:33:18 10° 57° (ENE) 1,778 4.0 -17.5°
Sets 04:36:37 0° 85° (E) 2,671 5.8 -16.6°
